FW4685 Weather Reports


Display with metric or nautical units.
time (UTC)temp
F
wind
direction
speed
MPH
gust
MPH
rain 1hr
in
rain 24hr
in
rain mn
in
humidity
%
barometer
mb
20260509034053 45 11 0.0 0.0 0.00 0.00 0.00 95 1020.0
20260509033029 46 5 0.0 0.0 0.00 0.00 0.00 95 1019.8
20260509032021 46 8 0.0 0.0 0.00 0.00 0.00 94 1019.9
20260509031054 47 11 0.0 0.0 0.00 0.00 0.00 94 1019.8
20260509030029 47 10 0.0 0.0 0.00 0.00 0.00 94 1019.8
20260509025049 47 10 0.0 0.0 0.00 0.00 0.00 94 1020.0
20260509024021 47 14 0.0 0.0 0.00 0.00 0.00 94 1019.9
20260509023033 47 0 0.0 0.0 0.00 0.00 0.00 94 1019.9
20260509022028 46 12 0.0 0.0 0.00 0.00 0.00 94 1019.9
20260509021022 45 32 0.0 0.0 0.00 0.00 0.00 94 1019.9
20260509020033 45 23 0.0 0.0 0.00 0.00 0.00 94 1019.9
20260509015029 45 10 0.0 0.0 0.00 0.00 0.00 93 1020.0
20260509014021 45 5 0.0 0.0 0.00 0.00 0.00 93 1020.0
20260509013032 45 11 0.0 0.0 0.00 0.00 0.00 92 1020.2
20260509012029 45 12 0.0 0.0 0.00 0.00 0.00 92 1020.1
20260509011049 45 5 0.0 0.0 0.00 0.00 0.00 91 1020.1
20260509010021 46 5 0.0 0.0 0.00 0.00 0.00 91 1020.1
20260509005034 46 5 0.0 0.0 0.00 0.00 0.00 90 1020.1
20260509004028 47 5 0.0 0.0 0.00 0.00 0.00 90 1020.2
20260509003025 47 4 0.0 0.0 0.00 0.00 0.00 89 1020.1
20260509002021 47 3 0.0 0.0 0.00 0.00 0.00 90 1020.0
20260509001021 47 2 0.0 0.0 0.00 0.00 0.00 89 1020.1
20260509000035 47 5 0.0 0.0 0.00 0.00 0.00 89 1020.2
20260508235028 47 13 0.0 0.0 0.00 0.00 0.00 88 1020.2
20260508234022 47 13 0.0 0.0 0.00 0.00 0.00 88 1020.2
20260508233053 48 5 0.0 0.0 0.00 0.00 0.00 87 1020.3
20260508232036 48 12 0.0 0.0 0.00 0.00 0.00 87 1020.2
20260508231029 48 12 0.0 0.0 0.00 0.00 0.00 86 1020.2
20260508230029 49 12 0.0 0.0 0.00 0.00 0.00 85 1020.3
20260508225021 49 8 0.0 0.0 0.00 0.00 0.00 85 1020.3
20260508224034 49 6 0.0 0.0 0.00 0.00 0.00 84 1020.2
20260508223029 50 23 0.0 0.0 0.00 0.00 0.00 83 1020.2
20260508222021 50 10 0.0 0.0 0.00 0.00 0.00 82 1020.1
20260508221023 51 13 0.0 0.0 0.00 0.00 0.00 81 1020.0
20260508220033 51 10 0.0 0.0 0.00 0.00 0.00 80 1020.2
20260508215029 52 0 0.0 0.0 0.00 0.00 0.00 78 1020.1
20260508214021 53 13 0.0 0.0 0.00 0.00 0.00 77 1020.1
20260508213034 54 15 0.0 0.0 0.00 0.00 0.00 74 1020.0
20260508212028 55 24 0.0 0.0 0.00 0.00 0.00 72 1019.9
20260508211021 55 24 0.0 0.0 0.00 0.00 0.00 71 1019.9
20260508210021 56 24 0.0 0.0 0.00 0.00 0.00 68 1019.9
20260508205033 57 54 0.0 0.0 0.00 0.00 0.00 67 1019.6
20260508204029 57 59 0.0 0.0 0.00 0.00 0.00 67 1019.7
20260508203042 58 31 0.0 0.0 0.00 0.00 0.00 66 1019.6
20260508202034 58 73 0.0 2.0 0.00 0.00 0.00 65 1019.5
20260508201028 59 81 1.0 5.0 0.00 0.00 0.00 66 1019.3
20260508200022 59 65 0.0 2.0 0.00 0.00 0.00 66 1019.2
20260508195052 60 75 0.0 5.0 0.00 0.00 0.00 65 1019.0
20260508194029 60 85 0.0 0.0 0.00 0.00 0.00 65 1019.0
20260508193021 61 86 1.0 5.0 0.00 0.00 0.00 64 1018.8
20260508192032 62 72 1.0 5.0 0.00 0.00 0.00 64 1018.8
20260508191029 62 77 1.0 5.0 0.00 0.00 0.00 63 1018.7
20260508190021 63 81 1.0 5.0 0.00 0.00 0.00 61 1018.6
20260508185033 63 74 1.0 7.0 0.00 0.00 0.00 61 1018.4
20260508184028 64 30 0.0 2.0 0.00 0.00 0.00 61 1018.4
20260508183021 64 88 1.0 5.0 0.00 0.00 0.00 60 1018.3
20260508182032 64 132 0.0 2.0 0.00 0.00 0.00 59 1018.2
20260508181028 63 115 0.0 2.0 0.00 0.00 0.00 59 1018.2
20260508180022 63 76 1.0 5.0 0.00 0.00 0.00 59 1018.1
20260508175032 64 79 0.0 7.0 0.00 0.00 0.00 60 1018.2
20260508174029 64 92 0.0 5.0 0.00 0.00 0.00 60 1018.1
20260508173021 65 96 0.0 2.0 0.00 0.00 0.00 60 1018.0
20260508172034 65 84 1.0 5.0 0.00 0.00 0.00 58 1017.9
20260508171029 65 149 1.0 5.0 0.00 0.00 0.00 56 1017.9
20260508170022 65 87 0.0 5.0 0.00 0.00 0.00 55 1017.9
20260508165052 65 49 0.0 2.0 0.00 0.00 0.00 56 1017.9
20260508164028 65 87 0.0 2.0 0.00 0.00 0.00 56 1018.0
20260508163021 66 121 1.0 5.0 0.00 0.00 0.00 55 1017.9
20260508162032 66 85 1.0 5.0 0.00 0.00 0.00 54 1017.8
20260508161028 66 127 0.0 5.0 0.00 0.00 0.00 52 1017.8
20260508160021 66 122 1.0 5.0 0.00 0.00 0.00 52 1017.8
20260508155033 67 64 0.0 5.0 0.00 0.00 0.00 51 1017.7
20260508154049 68 34 1.0 7.0 0.00 0.00 0.00 51 1017.7
20260508153021 69 39 0.0 7.0 0.00 0.00 0.00 49 1017.8
20260508152032 70 37 0.0 2.0 0.00 0.00 0.00 48 1017.9
20260508151028 69 56 2.0 7.0 0.00 0.00 0.00 46 1017.9
20260508150021 68 118 1.0 5.0 0.00 0.00 0.00 47 1017.9
20260508145034 67 34 1.0 7.0 0.00 0.00 0.00 47 1017.9
20260508144028 66 62 2.0 7.0 0.00 0.00 0.00 50 1017.9
20260508143022 65 73 0.0 5.0 0.00 0.00 0.00 53 1018.2
20260508142034 65 74 1.0 7.0 0.00 0.00 0.00 52 1018.2
20260508141028 64 68 1.0 5.0 0.00 0.00 0.00 52 1018.2
20260508140041 64 75 1.0 5.0 0.00 0.00 0.00 53 1018.3
20260508135033 65 156 1.0 5.0 0.00 0.00 0.00 54 1018.3
20260508134029 64 69 0.0 5.0 0.00 0.00 0.00 54 1018.3
20260508133042 64 37 1.0 2.0 0.00 0.00 0.00 54 1018.3
20260508132034 63 133 1.0 7.0 0.00 0.00 0.00 55 1018.5
20260508131028 62 75 1.0 5.0 0.00 0.00 0.00 59 1018.6
20260508130041 62 79 1.0 5.0 0.00 0.00 0.00 60 1018.6
20260508125033 62 61 0.0 5.0 0.00 0.00 0.00 60 1018.7
20260508124028 62 73 1.0 5.0 0.00 0.00 0.00 59 1018.6
20260508123021 62 138 1.0 2.0 0.00 0.00 0.00 60 1018.6
20260508122032 62 87 0.0 2.0 0.00 0.00 0.00 60 1018.5
20260508121028 61 119 0.0 2.0 0.00 0.00 0.00 59 1018.6
20260508120022 61 81 0.0 2.0 0.00 0.00 0.00 60 1018.8
20260508115112 61 95 0.0 2.0 0.00 0.00 0.00 61 1018.7
20260508114049 60 111 1.0 5.0 0.00 0.00 0.00 62 1018.7
20260508113021 60 135 1.0 5.0 0.00 0.00 0.00 62 1018.7
20260508112033 60 149 1.0 7.0 0.00 0.00 0.00 63 1018.7
20260508111028 60 87 1.0 7.0 0.00 0.00 0.00 63 1018.7
20260508110021 60 125 1.0 5.0 0.00 0.00 0.00 63 1018.6
20260508105032 60 147 1.0 5.0 0.00 0.00 0.00 63 1018.7
20260508104029 60 141 0.0 5.0 0.00 0.00 0.00 63 1018.7
20260508103021 60 149 0.0 2.0 0.00 0.00 0.00 63 1018.7
20260508102032 60 164 1.0 5.0 0.00 0.00 0.00 63 1018.6
20260508101028 61 116 0.0 2.0 0.00 0.00 0.00 62 1018.6
20260508100042 61 132 1.0 7.0 0.00 0.00 0.00 60 1018.6
20260508095033 62 146 1.0 7.0 0.00 0.00 0.00 59 1018.7
20260508094027 62 158 2.0 10.0 0.00 0.00 0.00 57 1018.4
20260508093022 62 164 2.0 7.0 0.00 0.00 0.00 57 1018.4
20260508092032 62 107 1.0 5.0 0.00 0.00 0.00 59 1018.4
20260508091027 61 136 1.0 5.0 0.00 0.00 0.00 60 1018.3
20260508090020 61 96 1.0 5.0 0.00 0.00 0.00 63 1018.4
20260508085032 60 133 1.0 5.0 0.00 0.00 0.00 65 1018.6
20260508084028 59 151 2.0 10.0 0.00 0.00 0.00 68 1018.6
20260508083022 58 76 1.0 5.0 0.00 0.00 0.00 71 1018.6
20260508082032 56 84 1.0 5.0 0.00 0.00 0.00 74 1018.5
20260508081048 55 26 1.0 7.0 0.00 0.00 0.00 75 1018.5
20260508080021 54 100 1.0 5.0 0.00 0.00 0.00 77 1018.6
20260508075032 54 71 0.0 5.0 0.00 0.00 0.00 79 1018.5
20260508074027 53 40 1.0 7.0 0.00 0.00 0.00 81 1018.5
20260508073023 52 76 0.0 2.0 0.00 0.00 0.00 82 1018.4
20260508072041 51 81 0.0 2.0 0.00 0.00 0.00 85 1018.3
20260508071052 50 74 0.0 2.0 0.00 0.00 0.00 86 1018.5
20260508070047 50 66 0.0 2.0 0.00 0.00 0.00 87 1018.3
20260508065021 49 9 0.0 2.0 0.00 0.00 0.00 88 1018.4
20260508064031 49 62 0.0 0.0 0.00 0.00 0.00 89 1018.5
20260508063048 48 22 0.0 0.0 0.00 0.00 0.00 91 1018.4
20260508062021 48 16 0.0 0.0 0.00 0.00 0.00 93 1018.4
20260508061021 47 47 0.0 0.0 0.00 0.00 0.00 94 1018.4
20260508060054 47 76 0.0 0.0 0.00 0.00 0.00 95 1018.3
20260508055108 47 33 0.0 0.0 0.00 0.00 0.00 97 1018.3
20260508054021 47 17 0.0 0.0 0.00 0.00 0.00 97 1018.2
20260508053032 46 23 0.0 0.0 0.00 0.00 0.00 97 1018.1
20260508052028 46 23 0.0 0.0 0.00 0.00 0.00 98 1018.1
20260508051022 46 18 0.0 0.0 0.00 0.00 0.00 98 1018.0
20260508050034 46 25 0.0 0.0 0.00 0.00 0.00 98 1018.0
20260508045028 45 16 0.0 0.0 0.00 0.00 0.00 98 1018.0
20260508044019 45 16 0.0 0.0 0.00 0.00 0.00 98 1017.9
20260508043021 45 20 0.0 0.0 0.00 0.00 0.00 98 1017.8
20260508042019 45 3 0.0 0.0 0.00 0.00 0.00 98 1017.9
20260508041031 45 11 0.0 0.0 0.00 0.00 0.00 98 1017.8
20260508040028 45 8 0.0 0.0 0.00 0.00 0.00 97 1017.9
20260508035027 44 8 0.0 0.0 0.00 0.00 0.00 97 1017.9